IK5NLA Weather Reports


time (UTC)temp
F
wind
direction
speed
knots
gust
knots
rain 1hr
in
rain 24hr
in
rain mn
in
humidity
%
barometer
mb
20260507044617 49 117 0.9 5.2 0.00 0.00 0.00 93 1012.2
20260507044529 49 117 0.9 5.2 0.00 0.00 0.00 93 1012.2
20260507044421 49 117 0.9 5.2 0.00 0.00 0.00 93 1012.2
20260507044312 49 117 0.9 5.2 0.00 0.00 0.00 93 1012.2
20260507044228 49 117 0.9 5.2 0.00 0.00 0.00 93 1012.2
20260507044140 49 117 0.9 5.2 0.00 0.00 0.00 93 1012.2
20260507044031 49 117 1.7 5.2 0.00 0.00 0.00 93 1012.2
20260507043922 49 117 2.6 5.2 0.00 0.00 0.00 93 1012.2
20260507043814 49 115 1.7 3.5 0.00 0.00 0.00 93 1012.2
20260507043725 49 121 0.9 3.5 0.00 0.00 0.00 93 1012.2
20260507043636 49 121 0.9 6.1 0.00 0.00 0.00 93 1012.2
20260507043552 49 121 0.9 6.1 0.00 0.00 0.00 93 1012.2
20260507043423 49 121 0.9 6.1 0.00 0.00 0.00 93 1012.2
20260507043315 49 121 1.7 6.1 0.00 0.00 0.00 93 1012.1
20260507043228 49 121 1.7 6.1 0.00 0.00 0.00 93 1012.1
20260507043121 49 121 1.7 6.1 0.00 0.00 0.00 93 1012.2
20260507043036 49 121 0.9 6.1 0.00 0.00 0.00 93 1012.1
20260507042928 49 119 1.7 6.1 0.00 0.00 0.00 93 1012.1
20260507042821 49 119 2.6 6.1 0.00 0.00 0.00 93 1012.1
20260507042713 49 119 3.5 6.1 0.00 0.00 0.00 93 1012.1
20260507042645 49 119 3.5 6.1 0.00 0.00 0.00 93 1012.1
20260507042516 49 119 2.6 5.2 0.00 0.00 0.00 93 1012.1
20260507042433 49 125 1.7 7.0 0.00 0.00 0.00 93 1012.1
20260507042324 49 123 2.6 7.8 0.00 0.00 0.00 93 1012.1
20260507042217 50 123 3.5 8.7 0.00 0.00 0.00 93 1012.0
20260507042128 50 123 2.6 8.7 0.00 0.00 0.00 93 1012.1
20260507042020 50 169 2.6 8.7 0.00 0.00 0.00 93 1012.1
20260507041917 50 169 2.6 8.7 0.00 0.00 0.00 93 1012.1
20260507041829 50 169 2.6 8.7 0.00 0.00 0.00 93 1012.1
20260507041741 50 169 3.5 8.7 0.00 0.00 0.00 93 1012.1
20260507041633 50 171 4.3 8.7 0.00 0.00 0.00 93 1012.0
20260507041524 50 186 5.2 8.7 0.00 0.00 0.00 93 1012.0
20260507041416 50 186 6.1 8.7 0.00 0.00 0.00 93 1012.0
20260507041312 50 188 5.2 8.7 0.00 0.00 0.00 93 1012.1
20260507041224 50 178 4.3 6.1 0.00 0.00 0.00 93 1012.1
20260507041117 50 179 3.5 6.1 0.00 0.00 0.00 93 1012.0
20260507041028 50 179 3.5 6.1 0.00 0.00 0.00 93 1012.0
20260507040923 50 179 2.6 6.1 0.00 0.00 0.00 93 1012.0
20260506234428 52 188 4.3 9.6 0.00 0.00 0.00 92 1012.2
20260506234321 52 185 2.6 5.2 0.00 0.00 0.00 92 1012.2
20260506234213 52 188 2.6 4.3 0.00 0.00 0.00 92 1012.1
20260506234127 52 188 2.6 7.0 0.00 0.00 0.00 92 1012.1
20260506234020 52 190 1.7 7.0 0.00 0.00 0.00 92 1012.1
20260506233916 52 190 1.7 7.8 0.00 0.00 0.00 92 1012.1
20260506233829 52 190 2.6 7.8 0.00 0.00 0.00 92 1012.0
20260506233721 52 190 2.6 7.8 0.00 0.00 0.00 92 1012.0
20260506233613 52 190 2.6 7.8 0.00 0.00 0.00 92 1012.1
20260506233524 52 190 2.6 7.8 0.00 0.00 0.00 92 1012.1
20260506233420 52 205 1.7 7.8 0.00 0.00 0.00 92 1012.1
20260506233353 52 205 2.6 7.8 0.00 0.00 0.00 92 1012.1
20260506233224 52 211 3.5 7.8 0.00 0.00 0.00 93 1012.1
20260506233116 52 211 5.2 7.8 0.00 0.00 0.00 93 1012.1
20260506233050 52 212 4.3 7.8 0.00 0.00 0.00 93 1012.1
20260506232921 52 186 4.3 7.8 0.00 0.00 0.00 92 1012.1
20260506232836 52 192 3.5 7.8 0.00 0.00 0.00 92 1012.1
20260506232727 52 192 3.5 7.8 0.00 0.00 0.00 92 1012.1
20260506232618 51 191 3.5 7.8 0.00 0.00 0.00 93 1012.1
20260506232531 51 244 3.5 7.8 0.00 0.00 0.00 93 1012.1
20260506232422 51 263 2.6 7.8 0.00 0.00 0.00 93 1012.1
20260506232314 51 250 2.6 7.8 0.00 0.00 0.00 93 1012.1
20260506232246 51 250 3.5 7.8 0.00 0.00 0.00 93 1012.1
20260506232122 51 250 3.5 7.8 0.00 0.00 0.00 92 1012.2
20260506232015 51 211 2.6 9.6 0.00 0.00 0.00 92 1012.1
20260506231927 51 210 3.5 9.6 0.00 0.00 0.00 92 1012.1
20260506231820 51 276 3.5 9.6 0.00 0.00 0.00 92 1012.2
20260506231717 51 279 3.5 9.6 0.00 0.00 0.00 92 1012.1
20260506231630 51 242 2.6 9.6 0.00 0.00 0.00 92 1012.1
20260506231524 51 244 3.5 9.6 0.00 0.00 0.00 92 1012.1
20260506231416 51 234 4.3 9.6 0.00 0.00 0.00 92 1012.2
20260506231328 51 236 5.2 9.6 0.00 0.00 0.00 92 1012.2
20260506231224 51 261 6.1 9.6 0.00 0.00 0.00 92 1012.2
20260506231116 51 225 5.2 9.6 0.00 0.00 0.00 93 1012.2
20260506231028 51 205 4.3 9.6 0.00 0.00 0.00 93 1012.2
20260506230920 51 211 2.6 9.6 0.00 0.00 0.00 93 1012.2
20260506230852 51 216 3.5 9.6 0.00 0.00 0.00 92 1012.2
20260506230744 51 213 3.5 9.6 0.00 0.00 0.00 92 1012.3
20260506230639 51 236 3.5 9.6 0.00 0.00 0.00 92 1012.3
20260506230531 51 215 3.5 9.6 0.00 0.00 0.00 92 1012.3
20260506230423 51 244 5.2 9.6 0.00 0.00 0.00 92 1012.3
20260506230316 51 249 7.0 9.6 0.00 0.00 0.00 92 1012.3
20260506230228 52 236 7.0 9.6 0.00 0.00 0.00 92 1012.3
20260506230125 52 227 6.1 8.7 0.00 0.00 0.00 92 1012.3
20260506230016 52 221 6.1 8.7 0.00 0.00 0.00 92 1012.3
20260506225928 52 207 7.0 8.7 0.00 0.00 0.00 92 1012.3
20260506225820 52 194 6.1 9.6 0.00 0.00 0.00 92 1012.2
20260506225752 52 212 5.2 9.6 0.00 0.00 0.00 92 1012.2
20260506225623 52 228 5.2 9.6 0.00 0.00 0.00 92 1012.2
20260506225520 52 221 6.1 9.6 0.00 0.00 0.00 92 1012.2
20260506225412 52 194 7.0 9.6 0.00 0.00 0.00 92 1012.1
20260506225346 52 219 6.1 9.6 0.00 0.00 0.00 92 1012.1
20260506225217 52 203 5.2 7.8 0.00 0.00 0.00 92 1012.1
20260506225129 52 197 4.3 7.8 0.00 0.00 0.00 92 1012.2
20260506225026 52 210 5.2 7.8 0.00 0.00 0.00 92 1012.1
20260506224919 52 180 4.3 7.0 0.00 0.00 0.00 92 1012.1
20260506224851 53 178 3.5 7.0 0.00 0.00 0.00 92 1012.1
20260506224722 53 182 2.6 6.1 0.00 0.00 0.00 92 1012.0
20260506224615 53 186 1.7 4.3 0.00 0.00 0.00 92 1012.1
20260506224532 53 186 1.7 4.3 0.00 0.00 0.00 92 1012.1
20260506224424 53 186 1.7 5.2 0.00 0.00 0.00 93 1012.0
20260506224337 53 186 2.6 7.0 0.00 0.00 0.00 92 1012.0
20260506224228 53 185 2.6 7.0 0.00 0.00 0.00 92 1012.0
20260506224119 53 188 2.6 7.0 0.00 0.00 0.00 92 1012.0
20260506224015 53 201 1.7 7.8 0.00 0.00 0.00 92 1012.1
20260506223926 53 202 1.7 7.8 0.00 0.00 0.00 93 1012.1
20260506223818 53 202 2.6 7.8 0.00 0.00 0.00 93 1012.1
20260506223730 53 202 2.6 7.8 0.00 0.00 0.00 93 1012.1
20260506223642 53 209 3.5 7.8 0.00 0.00 0.00 93 1012.0
20260506223516 53 209 3.5 7.8 0.00 0.00 0.00 93 1012.1
20260506223412 53 210 4.3 7.8 0.00 0.00 0.00 93 1012.1
20260506223325 53 198 4.3 7.8 0.00 0.00 0.00 93 1012.1
20260506223215 52 186 3.5 7.8 0.00 0.00 0.00 93 1012.0
20260506223127 52 212 3.5 7.8 0.00 0.00 0.00 93 1012.0
20260506223041 52 215 3.5 7.8 0.00 0.00 0.00 93 1012.0
20260506222931 52 191 2.6 7.0 0.00 0.00 0.00 93 1012.0
20260506222827 52 269 2.6 7.0 0.00 0.00 0.00 93 1012.0
20260506222719 52 272 3.5 7.0 0.00 0.00 0.00 93 1012.0
20260506222632 52 265 3.5 7.0 0.00 0.00 0.00 93 1012.0
20260506222524 52 262 3.5 7.0 0.00 0.00 0.00 93 1012.0
20260506222414 52 261 3.5 7.0 0.00 0.00 0.00 93 1012.1
20260506222326 52 240 3.5 8.7 0.00 0.00 0.00 93 1012.1
20260506222243 52 243 4.3 8.7 0.00 0.00 0.00 93 1012.1
20260506222114 51 257 4.3 8.7 0.00 0.00 0.00 93 1012.1
20260506222027 51 223 4.3 8.7 0.00 0.00 0.00 93 1012.1
20260506221919 51 217 4.3 8.7 0.00 0.00 0.00 93 1012.2
20260506221812 51 198 3.5 8.7 0.00 0.00 0.00 93 1012.2
20260506221729 51 189 3.5 10.4 0.00 0.00 0.00 93 1012.2
20260506221642 51 189 4.3 10.4 0.00 0.00 0.00 93 1012.2
20260506221513 51 246 5.2 10.4 0.00 0.00 0.00 93 1012.2
20260506221424 51 255 5.2 10.4 0.00 0.00 0.00 93 1012.2
20260506221316 51 250 4.3 10.4 0.00 0.00 0.00 93 1012.2
20260506221226 51 245 4.3 10.4 0.00 0.00 0.00 93 1012.2
20260506221143 52 204 5.2 10.4 0.00 0.00 0.00 93 1012.2
20260506221016 52 225 5.2 10.4 0.00 0.00 0.00 93 1012.2
20260506220928 52 221 6.1 10.4 0.00 0.00 0.00 93 1012.2
20260506220821 52 188 6.1 10.4 0.00 0.00 0.00 93 1012.2
20260506220713 52 182 5.2 10.4 0.00 0.00 0.00 92 1012.2
20260506220646 52 227 5.2 8.7 0.00 0.00 0.00 92 1012.2
20260506220521 52 227 5.2 8.7 0.00 0.00 0.00 92 1012.2
20260506220437 52 215 5.2 10.4 0.00 0.00 0.00 93 1012.2
20260506220326 52 183 5.2 10.4 0.00 0.00 0.00 93 1012.2
20260506220218 52 211 5.2 10.4 0.00 0.00 0.00 93 1012.2
20260506220131 52 218 5.2 10.4 0.00 0.00 0.00 93 1012.2
20260506220024 52 218 3.5 10.4 0.00 0.00 0.00 93 1012.2
20260506215916 52 205 5.2 10.4 0.00 0.00 0.00 93 1012.2
20260506215812 52 207 7.0 10.4 0.00 0.00 0.00 93 1012.2
20260506215725 52 206 7.8 10.4 0.00 0.00 0.00 93 1012.2
20260506215617 52 244 7.8 10.4 0.00 0.00 0.00 93 1012.2
20260506215529 52 225 7.0 10.4 0.00 0.00 0.00 93 1012.2
20260506215420 52 228 4.3 8.7 0.00 0.00 0.00 93 1012.2
20260506215335 52 211 5.2 8.7 0.00 0.00 0.00 93 1012.1
20260506215226 52 201 5.2 8.7 0.00 0.00 0.00 93 1012.1
20260506215136 52 198 5.2 8.7 0.00 0.00 0.00 93 1012.1
20260506215028 52 209 5.2 8.7 0.00 0.00 0.00 93 1012.1
20260506214920 52 226 5.2 8.7 0.00 0.00 0.00 93 1012.1
20260506214813 52 171 5.2 8.7 0.00 0.00 0.00 92 1012.1
20260506214729 52 221 4.3 9.6 0.00 0.00 0.00 92 1012.1
20260506214641 52 208 5.2 9.6 0.00 0.00 0.00 92 1012.1
20260506214512 52 189 5.2 9.6 0.00 0.00 0.00 92 1012.1
20260506214425 52 204 6.1 10.4 0.00 0.00 0.00 92 1012.1
20260506214317 52 186 5.2 10.4 0.00 0.00 0.00 92 1012.0
20260506214213 52 198 5.2 10.4 0.00 0.00 0.00 92 1012.0
20260506214126 52 215 4.3 10.4 0.00 0.00 0.00 92 1012.0
20260506214040 52 182 3.5 10.4 0.00 0.00 0.00 92 1012.0
20260506213932 52 188 3.5 10.4 0.00 0.00 0.00 92 1012.0
20260506213824 52 199 4.3 10.4 0.00 0.00 0.00 92 1012.0
20260506213720 52 184 4.3 10.4 0.00 0.00 0.00 92 1012.0
20260506213632 53 178 5.2 10.4 0.00 0.00 0.00 92 1012.1
20260506213523 52 186 5.2 10.4 0.00 0.00 0.00 92 1012.0
20260506213415 53 182 3.5 7.8 0.00 0.00 0.00 92 1012.0
20260506213348 53 182 2.6 7.8 0.00 0.00 0.00 92 1012.0
20260506213220 53 182 3.5 7.8 0.00 0.00 0.00 92 1012.0
20260506213117 53 182 4.3 7.8 0.00 0.00 0.00 92 1012.0
20260506213030 53 182 4.3 7.8 0.00 0.00 0.00 92 1012.0
20260506212922 53 214 4.3 7.8 0.00 0.00 0.00 92 1012.0
20260506212814 53 190 3.5 7.8 0.00 0.00 0.00 92 1012.0
20260506212747 53 182 3.5 6.1 0.00 0.00 0.00 92 1012.0
20260506212619 53 182 3.5 6.1 0.00 0.00 0.00 92 1012.0
20260506212514 53 198 3.5 6.1 0.00 0.00 0.00 92 1012.0
20260506212447 53 207 3.5 6.1 0.00 0.00 0.00 92 1012.0
20260506212318 53 186 4.3 7.8 0.00 0.00 0.00 92 1012.0
20260506212230 53 171 4.3 7.8 0.00 0.00 0.00 92 1012.0
20260506212122 53 173 5.2 7.8 0.00 0.00 0.00 92 1012.0
20260506212020 53 166 4.3 7.8 0.00 0.00 0.00 92 1012.0
20260506211952 53 169 4.3 7.8 0.00 0.00 0.00 92 1012.0
20260506211824 53 169 3.5 7.8 0.00 0.00 0.00 92 1012.0
20260506211717 53 179 2.6 7.8 0.00 0.00 0.00 92 1012.0
20260506211630 53 179 3.5 7.8 0.00 0.00 0.00 92 1012.0
20260506211527 53 178 3.5 7.8 0.00 0.00 0.00 92 1012.0
20260506211419 53 178 4.3 7.8 0.00 0.00 0.00 92 1012.0
20260506211313 53 187 4.3 7.0 0.00 0.00 0.00 92 1012.0
20260506211244 53 186 4.3 7.0 0.00 0.00 0.00 92 1012.0
20260506211116 53 186 4.3 7.0 0.00 0.00 0.00 92 1012.0
20260506211027 53 192 2.6 7.0 0.00 0.00 0.00 92 1012.0
20260506210923 53 168 2.6 6.1 0.00 0.00 0.00 92 1012.0
20260506210814 53 169 3.5 6.1 0.00 0.00 0.00 92 1011.9
20260506210725 53 165 3.5 6.1 0.00 0.00 0.00 92 1011.9
20260506210616 53 188 2.6 6.1 0.00 0.00 0.00 92 1012.0
20260506210530 53 189 2.6 6.1 0.00 0.00 0.00 92 1012.0
20260506210421 54 205 1.7 6.1 0.00 0.00 0.00 92 1012.0
20260506210316 53 164 1.7 8.7 0.00 0.00 0.00 92 1011.9
20260506210228 53 155 1.7 8.7 0.00 0.00 0.00 92 1011.9
20260506210121 53 158 2.6 8.7 0.00 0.00 0.00 92 1012.0
20260506210012 53 157 2.6 8.7 0.00 0.00 0.00 92 1012.0
20260506205924 54 185 2.6 8.7 0.00 0.00 0.00 92 1012.0
20260506205840 54 189 1.7 8.7 0.00 0.00 0.00 92 1012.0
20260506205732 54 189 1.7 8.7 0.00 0.00 0.00 92 1011.9
20260506205624 54 189 1.7 8.7 0.00 0.00 0.00 92 1012.0
20260506205518 54 205 3.5 8.7 0.00 0.00 0.00 92 1012.0
20260506205429 54 203 4.3 8.7 0.00 0.00 0.00 92 1012.0
20260506205321 54 215 2.6 7.0 0.00 0.00 0.00 92 1011.9
20260506205215 54 171 0.9 6.1 0.00 0.00 0.00 92 1011.9
20260506205125 54 151 0.0 6.1 0.00 0.00 0.00 91 1011.9
20260506205017 54 152 0.9 7.0 0.00 0.00 0.00 91 1011.9
20260506204928 54 152 0.9 7.0 0.00 0.00 0.00 91 1011.9
20260506204818 54 105 1.7 10.4 0.00 0.00 0.00 91 1012.0
20260506204729 54 165 1.7 10.4 0.00 0.00 0.00 91 1012.0
20260506204626 54 165 1.7 10.4 0.00 0.00 0.00 91 1011.9
20260506204536 54 180 0.9 10.4 0.00 0.00 0.00 91 1011.9
20260506204447 54 180 0.9 10.4 0.00 0.00 0.00 91 1011.9
20260506204229 54 180 4.3 10.4 0.00 0.00 0.00 91 1011.9
20260506204122 54 170 4.3 10.4 0.00 0.00 0.00 91 1011.9
20260506204014 54 170 4.3 10.4 0.00 0.00 0.00 91 1011.8
20260506203930 54 184 4.3 10.4 0.00 0.00 0.00 91 1011.8
20260506203823 54 186 5.2 10.4 0.00 0.00 0.00 91 1011.8
20260506203715 54 186 3.5 9.6 0.00 0.00 0.00 90 1011.8
20260506203628 54 192 3.5 10.4 0.00 0.00 0.00 90 1011.8
20260506203521 54 257 4.3 10.4 0.00 0.00 0.00 90 1011.9
20260506203437 54 259 6.1 10.4 0.00 0.00 0.00 90 1011.9
20260506203328 54 190 6.1 10.4 0.00 0.00 0.00 90 1011.9
20260506203220 54 184 3.5 10.4 0.00 0.00 0.00 90 1011.9
20260506203113 54 220 3.5 10.4 0.00 0.00 0.00 90 1011.8
20260506203046 54 220 4.3 10.4 0.00 0.00 0.00 90 1011.8
20260506202936 54 226 6.1 10.4 0.00 0.00 0.00 90 1011.8
20260506202831 54 215 6.1 10.4 0.00 0.00 0.00 89 1011.8
20260506202721 54 204 7.0 10.4 0.00 0.00 0.00 89 1011.8
20260506202613 54 187 5.2 9.6 0.00 0.00 0.00 89 1011.7
20260506202527 54 188 5.2 10.4 0.00 0.00 0.00 89 1011.7
20260506202419 54 190 6.1 10.4 0.00 0.00 0.00 89 1011.7
20260506202315 54 224 7.0 10.4 0.00 0.00 0.00 89 1011.7
20260506202228 54 182 6.1 11.3 0.00 0.00 0.00 89 1011.7
20260506202121 54 186 4.3 8.7 0.00 0.00 0.00 89 1011.7
20260506202013 54 186 4.3 8.7 0.00 0.00 0.00 89 1011.7
20260506201926 54 198 4.3 8.7 0.00 0.00 0.00 89 1011.7
20260506201823 54 224 5.2 8.7 0.00 0.00 0.00 89 1011.7
20260506201715 54 202 4.3 9.6 0.00 0.00 0.00 89 1011.7
20260506201628 54 213 3.5 9.6 0.00 0.00 0.00 89 1011.7
20260506201521 54 190 3.5 9.6 0.00 0.00 0.00 89 1011.7
20260506201413 55 190 4.3 9.6 0.00 0.00 0.00 88 1011.6
20260506201330 55 225 4.3 9.6 0.00 0.00 0.00 89 1011.6
20260506201219 55 206 4.3 9.6 0.00 0.00 0.00 89 1011.7
20260506201152 55 244 5.2 9.6 0.00 0.00 0.00 88 1011.6
20260506201023 55 182 5.2 9.6 0.00 0.00 0.00 88 1011.6
20260506200934 55 187 6.1 9.6 0.00 0.00 0.00 88 1011.6
20260506200826 55 209 7.0 9.6 0.00 0.00 0.00 88 1011.6
20260506200722 55 207 6.1 8.7 0.00 0.00 0.00 88 1011.6
20260506200614 55 201 6.1 9.6 0.00 0.00 0.00 88 1011.5
20260506200528 55 206 6.1 9.6 0.00 0.00 0.00 88 1011.5
20260506200440 55 229 6.1 9.6 0.00 0.00 0.00 88 1011.5
20260506200331 55 206 6.1 9.6 0.00 0.00 0.00 88 1011.5
20260506200223 55 228 6.1 9.6 0.00 0.00 0.00 88 1011.5
20260506200120 55 202 5.2 12.2 0.00 0.00 0.00 88 1011.5
20260506200030 55 223 6.1 12.2 0.00 0.00 0.00 88 1011.5
20260506195922 55 221 6.1 12.2 0.00 0.00 0.00 88 1011.4
20260506195834 55 182 5.2 12.2 0.00 0.00 0.00 88 1011.4
20260506195725 55 209 6.1 12.2 0.00 0.00 0.00 88 1011.4
20260506195623 55 209 7.0 12.2 0.00 0.00 0.00 88 1011.4
20260506195515 55 213 7.8 12.2 0.00 0.00 0.00 88 1011.4
20260506195448 55 208 7.0 12.2 0.00 0.00 0.00 88 1011.4
20260506195319 55 209 7.0 12.2 0.00 0.00 0.00 88 1011.4
20260506195230 55 186 7.0 12.2 0.00 0.00 0.00 88 1011.4
20260506195120 55 212 7.8 12.2 0.00 0.00 0.00 88 1011.4
20260506195016 55 211 7.8 12.2 0.00 0.00 0.00 88 1011.3
20260506194947 55 228 7.0 12.2 0.00 0.00 0.00 88 1011.3
20260506194817 55 211 7.0 12.2 0.00 0.00 0.00 88 1011.3
20260506194726 55 212 7.8 12.2 0.00 0.00 0.00 88 1011.3
20260506194620 55 229 8.7 12.2 0.00 0.00 0.00 88 1011.4
20260506194512 55 184 7.8 12.2 0.00 0.00 0.00 88 1011.3
20260506194425 55 182 8.7 13.0 0.00 0.00 0.00 88 1011.3
20260506194322 55 178 7.8 11.3 0.00 0.00 0.00 88 1011.3
20260506194214 55 186 7.8 11.3 0.00 0.00 0.00 88 1011.2
20260506194125 55 230 7.0 10.4 0.00 0.00 0.00 88 1011.2
20260506194019 55 168 6.1 8.7 0.00 0.00 0.00 88 1011.3
20260506193931 55 181 6.1 8.7 0.00 0.00 0.00 88 1011.3
20260506193828 55 217 7.0 8.7 0.00 0.00 0.00 88 1011.2
20260506193721 55 194 6.1 11.3 0.00 0.00 0.00 88 1011.2
20260506193613 55 167 3.5 9.6 0.00 0.00 0.00 88 1011.1
20260506193527 55 184 4.3 9.6 0.00 0.00 0.00 88 1011.1
20260506193419 55 208 4.3 9.6 0.00 0.00 0.00 88 1011.1
20260506193315 55 189 5.2 9.6 0.00 0.00 0.00 88 1011.0
20260506193226 55 202 5.2 9.6 0.00 0.00 0.00 88 1011.0
20260506193119 55 210 5.2 9.6 0.00 0.00 0.00 88 1011.0
20260506193052 55 183 6.1 9.6 0.00 0.00 0.00 88 1011.0
20260506192923 55 188 5.2 8.7 0.00 0.00 0.00 88 1011.0
20260506192819 55 221 5.2 8.7 0.00 0.00 0.00 87 1011.0
20260506192712 55 228 2.6 8.7 0.00 0.00 0.00 87 1010.9
20260506192625 55 172 2.6 8.7 0.00 0.00 0.00 87 1010.9
20260506192519 55 175 2.6 8.7 0.00 0.00 0.00 87 1010.9
20260506192431 55 175 2.6 8.7 0.00 0.00 0.00 87 1010.9
20260506192323 55 173 2.6 8.7 0.00 0.00 0.00 87 1010.8
20260506192218 55 173 3.5 8.7 0.00 0.00 0.00 87 1010.9
20260506192129 55 173 4.3 8.7 0.00 0.00 0.00 87 1010.8
20260506192022 55 173 4.3 10.4 0.00 0.00 0.00 87 1010.8
20260506191934 55 169 5.2 10.4 0.00 0.00 0.00 87 1010.8
20260506191824 55 190 5.2 10.4 0.00 0.00 0.00 87 1010.8
20260506191719 55 257 4.3 10.4 0.00 0.00 0.00 87 1010.7
20260506191612 55 165 3.5 10.4 0.00 0.00 0.00 87 1010.7
20260506191546 55 240 2.6 10.4 0.00 0.00 0.00 87 1010.7
20260506191417 55 200 3.5 10.4 0.00 0.00 0.00 87 1010.7
20260506191330 55 196 4.3 10.4 0.00 0.00 0.00 86 1010.7
20260506191219 55 227 6.1 10.4 0.00 0.00 0.00 86 1010.6
20260506191114 55 202 6.1 10.4 0.00 0.00 0.00 86 1010.6
20260506191026 55 238 6.1 11.3 0.00 0.00 0.00 86 1010.6
20260506190916 55 250 5.2 11.3 0.00 0.00 0.00 86 1010.7
20260506190828 55 250 6.1 11.3 0.00 0.00 0.00 86 1010.7
20260506190741 55 188 6.1 11.3 0.00 0.00 0.00 86 1010.6
20260506190613 55 189 5.2 11.3 0.00 0.00 0.00 86 1010.7
20260506190529 55 197 7.0 11.3 0.00 0.00 0.00 86 1010.7
20260506190421 55 186 7.0 11.3 0.00 0.00 0.00 85 1010.7
20260506190331 55 186 7.0 12.2 0.00 0.00 0.00 85 1010.6
20260506190223 55 184 6.1 12.2 0.00 0.00 0.00 85 1010.5
20260506190115 55 195 5.2 12.2 0.00 0.00 0.00 85 1010.6
20260506190031 55 169 5.2 12.2 0.00 0.00 0.00 85 1010.6
20260506185921 55 127 5.2 12.2 0.00 0.00 0.00 85 1010.5
20260506185813 55 196 6.1 12.2 0.00 0.00 0.00 85 1010.5
20260506185726 55 181 6.1 12.2 0.00 0.00 0.00 85 1010.5
20260506185617 55 193 6.1 12.2 0.00 0.00 0.00 85 1010.4
20260506185421 55 182 3.5 12.2 0.00 0.00 0.00 84 1010.4
20260506185332 55 185 3.5 12.2 0.00 0.00 0.00 84 1010.5
20260506185224 55 182 4.3 12.2 0.00 0.00 0.00 84 1010.3
20260506185115 55 237 3.5 12.2 0.00 0.00 0.00 84 1010.4
20260506185028 55 128 2.6 11.3 0.00 0.00 0.00 84 1010.4
20260506184919 55 176 2.6 11.3 0.00 0.00 0.00 84 1010.3
20260506184836 55 186 3.5 11.3 0.00 0.00 0.00 84 1010.3
20260506184727 55 244 4.3 11.3 0.00 0.00 0.00 83 1010.3
20260506184618 55 157 3.5 11.3 0.00 0.00 0.00 83 1010.3
20260506184531 55 180 3.5 11.3 0.00 0.00 0.00 83 1010.3
20260506184423 55 180 4.3 11.3 0.00 0.00 0.00 84 1010.3
20260506184313 55 355 5.2 11.3 0.00 0.00 0.00 84 1010.3
20260506184230 55 153 5.2 11.3 0.00 0.00 0.00 84 1010.3
20260506184122 55 180 3.5 7.8 0.00 0.00 0.00 84 1010.3
20260506184013 55 185 3.5 7.8 0.00 0.00 0.00 83 1010.2
20260506183923 55 236 3.5 7.8 0.00 0.00 0.00 83 1010.2
20260506183835 55 173 4.3 7.8 0.00 0.00 0.00 83 1010.2
20260506183725 55 171 3.5 7.8 0.00 0.00 0.00 83 1010.2
20260506183621 55 180 3.5 7.0 0.00 0.00 0.00 83 1010.2
20260506183513 55 184 3.5 7.0 0.00 0.00 0.00 83 1010.2
20260506183446 55 182 1.7 7.0 0.00 0.00 0.00 82 1010.2
20260506183315 55 225 1.7 10.4 0.00 0.00 0.00 82 1010.2
20260506183228 55 229 0.9 10.4 0.00 0.00 0.00 82 1010.2
20260506183120 55 252 0.9 10.4 0.00 0.00 0.00 82 1010.2
20260506183015 55 169 2.6 10.4 0.00 0.00 0.00 82 1010.1
20260506182927 55 169 3.5 10.4 0.00 0.00 0.00 82 1010.1
20260506182819 56 171 3.5 10.4 0.00 0.00 0.00 82 1010.1
20260506182729 56 178 3.5 14.8 0.00 0.00 0.00 82 1010.1
20260506182622 56 178 4.3 14.8 0.00 0.00 0.00 82 1010.1
20260506182512 56 179 6.1 14.8 0.00 0.00 0.00 82 1010.1
20260506182428 56 165 6.1 14.8 0.00 0.00 0.00 82 1010.1
20260506182321 56 186 3.5 14.8 0.00 0.00 0.00 81 1010.2
20260506182213 56 179 3.5 14.8 0.00 0.00 0.00 81 1010.1
20260506182124 56 178 3.5 14.8 0.00 0.00 0.00 81 1010.1
20260506182036 56 163 4.3 14.8 0.00 0.00 0.00 81 1010.2
20260506181928 56 200 6.1 14.8 0.00 0.00 0.00 80 1010.2
20260506181824 56 246 7.8 14.8 0.00 0.00 0.00 80 1010.1
20260506181715 56 274 5.2 13.0 0.00 0.00 0.00 81 1010.1
20260506181627 56 180 4.3 13.0 0.00 0.00 0.00 81 1010.1
20260506181520 56 229 5.2 13.0 0.00 0.00 0.00 81 1010.2
20260506181430 56 242 5.2 13.0 0.00 0.00 0.00 81 1010.1
20260506181317 56 225 6.1 13.0 0.00 0.00 0.00 81 1010.0
20260506181213 56 184 5.2 13.0 0.00 0.00 0.00 81 1010.1
20260506181146 56 174 6.1 13.0 0.00 0.00 0.00 81 1010.1
20260506181015 56 180 6.1 13.0 0.00 0.00 0.00 81 1010.1
20260506180928 56 180 5.2 13.9 0.00 0.00 0.00 81 1010.1
20260506180819 56 182 5.2 13.9 0.00 0.00 0.00 81 1010.1
20260506180752 56 186 6.1 13.9 0.00 0.00 0.00 81 1010.1
20260506180621 56 173 6.1 13.9 0.00 0.00 0.00 81 1010.0
20260506180519 56 229 5.2 13.0 0.00 0.00 0.00 81 1010.0
20260506180430 56 188 5.2 13.0 0.00 0.00 0.00 81 1010.0
20260506180342 56 201 6.1 13.0 0.00 0.00 0.00 81 1010.0
20260506180213 56 146 5.2 13.0 0.00 0.00 0.00 81 1010.0
20260506180126 56 187 5.2 12.2 0.00 0.00 0.00 81 1010.0
20260506180023 56 202 6.1 10.4 0.00 0.00 0.00 81 1009.9
20260506175915 56 194 6.1 10.4 0.00 0.00 0.00 81 1009.9
20260506175827 56 177 5.2 9.6 0.00 0.00 0.00 81 1009.9
20260506175719 56 213 5.2 8.7 0.00 0.00 0.00 81 1010.0
20260506175632 56 241 5.2 8.7 0.00 0.00 0.00 81 1010.0
20260506175547 56 183 6.1 8.7 0.00 0.00 0.00 81 1009.9
20260506175416 56 215 5.2 8.7 0.00 0.00 0.00 81 1009.9
20260506175328 56 189 4.3 9.6 0.00 0.00 0.00 81 1009.9
20260506175240 56 165 3.5 9.6 0.00 0.00 0.00 81 1009.8
20260506175150 56 186 3.5 9.6 0.00 0.00 0.00 80 1009.9
20260506175020 56 184 3.5 10.4 0.00 0.00 0.00 80 1009.9
20260506174930 56 172 3.5 10.4 0.00 0.00 0.00 80 1010.0
20260506174826 56 165 4.3 10.4 0.00 0.00 0.00 80 1009.8
20260506174719 56 156 5.2 10.4 0.00 0.00 0.00 80 1009.9
20260506174632 56 183 5.2 11.3 0.00 0.00 0.00 80 1009.8
20260506174522 56 249 6.1 11.3 0.00 0.00 0.00 80 1009.9
20260506174412 56 180 5.2 11.3 0.00 0.00 0.00 80 1009.8
20260506174325 56 154 4.3 11.3 0.00 0.00 0.00 80 1009.8
20260506174220 56 178 4.3 15.6 0.00 0.00 0.00 79 1009.8
20260506174112 56 169 4.3 15.6 0.00 0.00 0.00 79 1009.8
20260506174026 56 124 4.3 15.6 0.00 0.00 0.00 79 1009.8
20260506173937 56 138 3.5 15.6 0.00 0.00 0.00 79 1009.8
20260506173828 57 165 4.3 19.1 0.00 0.00 0.00 79 1009.8
20260506173724 57 173 5.2 19.1 0.00 0.00 0.00 79 1009.7
20260506173629 57 169 5.2 19.1 0.00 0.00 0.00 79 1009.7
20260506173521 57 183 5.2 19.1 0.00 0.00 0.00 79 1009.7
20260506173453 57 165 7.8 19.1 0.00 0.00 0.00 79 1009.7
20260506173323 57 190 8.7 19.1 0.00 0.00 0.00 79 1009.7
20260506173231 57 157 7.0 19.1 0.00 0.00 0.00 79 1009.7
20260506173128 57 188 7.0 19.1 0.00 0.00 0.00 78 1009.8
20260506173042 57 198 8.7 19.1 0.00 0.00 0.00 77 1009.8
20260506172932 57 305 8.7 19.1 0.00 0.00 0.00 78 1009.7
20260506172824 57 242 8.7 19.1 0.00 0.00 0.00 79 1009.7
20260506172716 57 238 7.0 19.1 0.00 0.00 0.00 79 1009.7
20260506172612 57 216 6.1 19.1 0.00 0.00 0.00 79 1009.7
20260506172525 57 149 6.1 19.1 0.00 0.00 0.00 79 1009.7
20260506172415 57 145 7.0 19.1 0.00 0.00 0.00 80 1009.9
20260506172326 57 242 7.0 19.1 0.00 0.00 0.00 80 1009.9
20260506172216 57 265 7.0 19.1 0.00 0.00 0.00 80 1009.7
20260506172127 57 159 8.7 19.1 0.00 0.00 0.00 80 1009.7
20260506172023 57 213 8.7 19.1 0.00 0.00 0.00 79 1009.7
20260506171914 57 221 6.1 19.1 0.00 0.00 0.00 80 1009.8
20260506171846 57 185 5.2 15.6 0.00 0.00 0.00 80 1009.8
20260506171718 57 223 8.7 15.6 0.00 0.00 0.00 80 1009.8
20260506171628 57 267 12.2 15.6 0.00 0.00 0.00 80 1009.7
20260506171540 57 210 10.4 14.8 0.00 0.00 0.00 80 1009.7
20260506171413 57 279 8.7 13.9 0.00 0.00 0.00 81 1009.8
20260506171325 57 234 7.0 13.0 0.00 0.00 0.00 81 1009.8
20260506171216 57 179 7.0 16.5 0.00 0.00 0.00 81 1009.7
20260506171129 57 225 5.2 16.5 0.00 0.00 0.00 81 1009.7
20260506171043 57 183 5.2 16.5 0.00 0.00 0.00 81 1009.8
20260506170934 57 165 6.1 16.5 0.00 0.00 0.00 80 1009.7
20260506170825 57 235 7.0 16.5 0.00 0.00 0.00 80 1009.7
20260506170722 57 229 6.1 16.5 0.00 0.00 0.00 80 1009.8
20260506170613 57 186 5.2 17.4 0.00 0.00 0.00 80 1009.7
20260506170525 57 156 6.1 17.4 0.00 0.00 0.00 80 1009.7
20260506170418 57 185 7.8 17.4 0.00 0.00 0.00 80 1009.7
20260506170312 57 242 7.8 17.4 0.00 0.00 0.00 80 1009.7
20260506170224 57 203 7.8 17.4 0.00 0.00 0.00 80 1009.7
20260506170113 57 183 8.7 17.4 0.00 0.00 0.00 79 1009.7
20260506170047 57 225 9.6 17.4 0.00 0.00 0.00 79 1009.7
20260506165918 57 173 7.0 19.1 0.00 0.00 0.00 78 1009.7
20260506165828 57 217 7.0 19.1 0.00 0.00 0.00 78 1009.7
20260506165724 57 195 7.0 19.1 0.00 0.00 0.00 77 1009.7
20260506165616 57 181 6.1 19.1 0.00 0.00 0.00 78 1009.6
20260506165549 57 178 6.1 19.1 0.00 0.00 0.00 77 1009.6
20260506165420 57 188 8.7 19.1 0.00 0.00 0.00 77 1009.6
20260506165331 57 194 9.6 19.1 0.00 0.00 0.00 76 1009.7
20260506165243 57 188 9.6 19.1 0.00 0.00 0.00 76 1009.7
20260506165119 58 202 10.4 19.1 0.00 0.00 0.00 76 1009.7
20260506165031 58 158 10.4 19.1 0.00 0.00 0.00 76 1009.6
20260506164922 58 171 8.7 19.1 0.00 0.00 0.00 76 1009.6
20260506164815 58 165 8.7 19.1 0.00 0.00 0.00 76 1009.6
20260506164727 58 128 8.7 19.1 0.00 0.00 0.00 76 1009.6
20260506164623 58 201 8.7 19.1 0.00 0.00 0.00 75 1009.7
20260506164514 58 186 8.7 19.1 0.00 0.00 0.00 75 1009.6
20260506164427 58 188 7.8 19.1 0.00 0.00 0.00 74 1009.6
20260506164318 58 184 9.6 19.1 0.00 0.00 0.00 74 1009.6
20260506164231 58 183 9.6 18.2 0.00 0.00 0.00 74 1009.5
20260506164128 58 183 7.8 18.2 0.00 0.00 0.00 74 1009.6
20260506164022 58 229 7.8 18.2 0.00 0.00 0.00 75 1009.6
20260506163913 58 172 8.7 18.2 0.00 0.00 0.00 74 1009.5
20260506163825 58 157 8.7 17.4 0.00 0.00 0.00 75 1009.5
20260506163716 58 213 7.0 17.4 0.00 0.00 0.00 76 1009.6
20260506163613 58 199 7.8 19.1 0.00 0.00 0.00 76 1009.6
20260506163525 58 188 7.8 19.1 0.00 0.00 0.00 76 1009.6
20260506163416 58 186 7.8 19.1 0.00 0.00 0.00 77 1009.6
20260506163327 58 250 7.8 19.1 0.00 0.00 0.00 77 1009.6
20260506163240 58 196 9.6 20.9 0.00 0.00 0.00 76 1009.7
20260506163131 58 208 8.7 20.9 0.00 0.00 0.00 76 1009.7
20260506163026 58 229 9.6 20.9 0.00 0.00 0.00 77 1009.7
20260506162918 58 242 9.6 20.9 0.00 0.00 0.00 77 1009.6
20260506162831 58 215 9.6 20.9 0.00 0.00 0.00 77 1009.6
20260506162723 58 259 13.0 20.9 0.00 0.00 0.00 78 1009.6
20260506162616 58 232 9.6 20.9 0.00 0.00 0.00 78 1009.5
20260506162532 58 240 7.8 20.9 0.00 0.00 0.00 78 1009.5
20260506162424 58 177 8.7 20.9 0.00 0.00 0.00 77 1009.6
20260506162314 58 215 11.3 20.9 0.00 0.00 0.00 78 1009.5
20260506162226 58 244 13.0 20.9 0.00 0.00 0.00 77 1009.5
20260506162139 58 132 11.3 20.0 0.00 0.00 0.00 77 1009.5
20260506162029 58 167 8.7 16.5 0.00 0.00 0.00 78 1009.4
20260506161925 59 100 7.0 19.1 0.00 0.00 0.00 79 1009.5
20260506161817 59 248 7.0 19.1 0.00 0.00 0.00 78 1009.4
20260506161749 59 150 5.2 19.1 0.00 0.00 0.00 78 1009.4
20260506161620 59 87 4.3 19.1 0.00 0.00 0.00 77 1009.4
20260506161532 59 231 7.0 19.1 0.00 0.00 0.00 78 1009.5
20260506161424 59 304 10.4 19.1 0.00 0.00 0.00 78 1009.5
20260506161319 59 226 9.6 19.1 0.00 0.00 0.00 78 1009.5
20260506161229 59 205 8.7 19.1 0.00 0.00 0.00 77 1009.2
20260506161122 59 186 8.7 19.1 0.00 0.00 0.00 78 1009.4
20260506161035 59 200 7.8 19.1 0.00 0.00 0.00 78 1009.4
20260506160925 59 205 6.1 18.2 0.00 0.00 0.00 78 1009.4
20260506160817 59 171 6.1 18.2 0.00 0.00 0.00 78 1009.5
20260506160714 59 137 4.3 18.2 0.00 0.00 0.00 79 1009.6
20260506160625 59 131 5.2 18.2 0.00 0.00 0.00 79 1009.6
20260506160517 59 300 7.0 18.2 0.00 0.00 0.00 78 1009.6
20260506160449 59 134 7.8 19.1 0.00 0.00 0.00 78 1009.6
20260506160319 59 205 6.1 19.1 0.00 0.00 0.00 79 1009.6
20260506160214 59 176 3.5 19.1 0.00 0.00 0.00 79 1009.5
20260506160127 59 184 5.2 19.1 0.00 0.00 0.00 79 1009.5
20260506160017 59 161 7.0 19.1 0.00 0.00 0.00 78 1009.6
20260506155929 59 245 7.8 19.1 0.00 0.00 0.00 79 1009.6
20260506155822 59 126 7.8 19.1 0.00 0.00 0.00 79 1009.4
20260506155714 59 163 7.0 19.1 0.00 0.00 0.00 79 1009.5
20260506155649 59 157 9.6 19.1 0.00 0.00 0.00 80 1009.5
20260506155521 59 148 11.3 19.1 0.00 0.00 0.00 79 1009.4
20260506155432 59 146 9.6 20.0 0.00 0.00 0.00 79 1009.3
20260506155343 59 98 7.8 20.0 0.00 0.00 0.00 79 1009.2
20260506155232 59 19 7.0 20.0 0.00 0.00 0.00 80 1009.4
20260506155122 59 170 4.3 16.5 0.00 0.00 0.00 80 1009.3
20260506155019 59 149 7.8 16.5 0.00 0.00 0.00 81 1009.3
20260506154952 59 138 10.4 16.5 0.00 0.00 0.00 81 1009.2
20260506154823 59 182 9.6 16.5 0.00 0.00 0.00 81 1009.4
20260506154712 59 190 7.8 11.3 0.00 0.00 0.00 82 1009.2
20260506154644 59 148 6.1 11.3 0.00 0.00 0.00 82 1009.2
20260506154514 59 169 5.2 12.2 0.00 0.00 0.00 83 1009.2
20260506154426 59 167 5.2 12.2 0.00 0.00 0.00 84 1009.2
20260506154321 59 140 7.0 12.2 0.00 0.00 0.00 83 1009.2
20260506154214 59 171 6.1 12.2 0.00 0.00 0.00 83 1009.2
20260506154126 59 90 5.2 10.4 0.00 0.00 0.00 84 1009.2
20260506154020 59 236 5.2 13.0 0.00 0.00 0.00 85 1009.2
20260506153912 59 157 5.2 13.0 0.00 0.00 0.00 85 1009.2
20260506153829 59 181 4.3 18.2 0.00 0.00 0.00 85 1009.2
20260506153722 59 161 3.5 18.2 0.00 0.00 0.00 85 1009.2
20260506153614 59 170 3.5 17.4 0.00 0.00 0.00 85 1009.3
20260506153545 59 163 2.6 17.4 0.00 0.00 0.00 85 1009.3
20260506153415 59 189 2.6 17.4 0.00 0.00 0.00 85 1009.1
20260506153331 59 217 3.5 17.4 0.00 0.00 0.00 85 1009.1
20260506153222 59 215 6.1 17.4 0.00 0.00 0.00 85 1009.1
20260506153135 59 76 6.1 17.4 0.00 0.00 0.00 85 1009.1
20260506153027 59 173 7.8 17.4 0.00 0.00 0.00 85 1009.1
20260506152919 59 101 8.7 17.4 0.00 0.00 0.00 85 1009.0
20260506152816 59 193 11.3 17.4 0.00 0.00 0.00 86 1009.1
20260506152728 59 145 11.3 17.4 0.00 0.00 0.00 86 1009.1
20260506152620 59 180 9.6 17.4 0.00 0.00 0.00 86 1009.1
20260506152512 59 173 8.7 17.4 0.00 0.00 0.00 85 1009.0
20260506152423 59 179 10.4 17.4 0.00 0.00 0.00 85 1009.0
20260506152313 59 178 10.4 17.4 0.00 0.00 0.00 86 1008.8
20260506152230 59 180 8.7 15.6 0.00 0.00 0.00 85 1008.8
20260506152123 59 160 7.8 17.4 0.00 0.00 0.00 85 1008.9
20260506152014 59 181 8.7 17.4 0.00 0.00 0.00 85 1008.9
20260506151947 59 211 9.6 17.4 0.00 0.00 0.00 86 1008.9
20260506151817 59 179 10.4 17.4 0.00 0.00 0.00 86 1008.9
20260506151714 58 118 10.4 17.4 0.00 0.00 0.00 86 1009.0
20260506151626 58 167 10.4 17.4 0.00 0.00 0.00 87 1009.0
20260506151537 58 174 9.6 17.4 0.00 0.00 0.00 87 1009.0
20260506151428 58 165 9.6 17.4 0.00 0.00 0.00 87 1009.0
20260506151321 58 166 10.4 17.4 0.00 0.00 0.00 86 1009.1
20260506151214 58 150 12.2 20.9 0.00 0.00 0.00 86 1009.0
20260506151130 58 179 9.6 20.9 0.00 0.00 0.00 87 1009.0
20260506151024 58 185 7.8 20.9 0.00 0.00 0.00 86 1009.0
20260506150915 58 162 6.1 20.9 0.00 0.00 0.00 86 1009.0
20260506150828 58 166 4.3 20.9 0.00 0.00 0.00 86 1009.0
20260506150721 58 138 4.3 20.9 0.00 0.00 0.00 86 1009.0
20260506150618 58 98 3.5 20.9 0.00 0.00 0.00 85 1009.1
20260506150530 58 82 5.2 20.9 0.00 0.00 0.00 85 1009.1
20260506150423 58 181 8.7 20.9 0.00 0.00 0.00 84 1009.3
20260506150335 58 186 8.7 20.9 0.00 0.00 0.00 84 1009.1
20260506150226 59 165 7.8 20.9 0.00 0.00 0.00 85 1009.1
20260506150123 59 156 5.2 9.6 0.00 0.00 0.00 84 1009.2
20260506150014 59 152 4.3 8.7 0.00 0.00 0.00 84 1009.4
20260506145927 59 175 5.2 8.7 0.00 0.00 0.00 85 1009.4
20260506145839 59 134 5.2 8.7 0.00 0.00 0.00 85 1009.4
20260506145729 59 98 4.3 9.6 0.00 0.00 0.00 85 1009.3
20260506145622 59 5 3.5 9.6 0.00 0.00 0.00 86 1009.2
20260506145517 59 90 3.5 13.9 0.00 0.00 0.00 87 1009.2
20260506145216 59 114 1.7 13.9 0.00 0.00 0.00 87 1009.3
20260506145127 59 134 2.6 13.9 0.00 0.00 0.00 87 1009.3
20260506145041 59 129 3.5 13.9 0.00 0.00 0.00 87 1009.2
20260506144931 58 93 3.5 13.9 0.00 0.00 0.00 87 1009.0
20260506144823 58 137 4.3 19.1 0.00 0.00 0.00 87 1009.2
20260506144719 58 121 7.0 19.1 0.00 0.00 0.00 87 1009.1
20260506144612 58 102 9.6 19.1 0.00 0.00 0.00 88 1009.1
20260506144524 58 186 8.7 19.1 0.00 0.00 0.00 88 1009.1
20260506144416 58 173 7.8 19.1 0.00 0.00 0.00 88 1009.2
20260506144313 58 178 6.1 19.1 0.00 0.00 0.00 89 1009.3
20260506144225 58 161 5.2 19.1 0.00 0.00 0.00 89 1009.3
20260506144118 58 157 3.5 19.1 0.00 0.00 0.00 89 1009.3
20260506144031 58 187 7.0 19.1 0.00 0.00 0.00 89 1009.4
20260506143923 58 255 7.8 19.1 0.00 0.00 0.00 90 1009.4
20260506143820 58 160 6.1 21.7 0.00 0.00 0.00 90 1009.4
20260506143712 58 227 8.7 21.7 0.00 0.00 0.00 90 1009.4
20260506143624 58 170 9.6 21.7 0.00 0.00 0.00 91 1009.4
20260506143516 57 172 7.8 15.6 0.00 0.00 0.00 91 1009.4
20260506143425 57 157 7.0 15.6 0.00 0.00 0.00 91 1009.4
20260506143321 57 165 7.0 15.6 0.00 0.00 0.00 91 1009.3
20260506143214 57 167 7.0 15.6 0.00 0.00 0.00 91 1009.2
20260506143147 57 148 7.8 15.6 0.00 0.00 0.00 92 1009.2
20260506143019 57 159 7.8 15.6 0.00 0.00 0.00 92 1009.2
20260506142932 57 173 7.0 12.2 0.00 0.00 0.00 92 1009.2
20260506142824 57 176 6.1 13.9 0.00 0.00 0.00 92 1009.4
20260506142721 57 157 6.1 13.0 0.00 0.00 0.00 92 1009.4
20260506142613 56 125 4.3 13.0 0.00 0.00 0.00 92 1009.2
20260506142546 56 125 5.2 13.0 0.00 0.00 0.00 92 1009.2
20260506142416 56 124 6.1 13.0 0.00 0.00 0.00 92 1009.3
20260506142329 56 141 5.2 13.0 0.00 0.00 0.00 92 1009.3
20260506142246 56 142 4.3 13.0 0.00 0.00 0.00 92 1009.5
20260506142118 56 148 5.2 13.0 0.00 0.00 0.00 92 1009.5
20260506142030 56 169 6.1 13.0 0.00 0.00 0.00 92 1009.5
20260506141942 56 171 7.0 13.0 0.00 0.00 0.00 92 1009.5
20260506141813 56 175 5.2 9.6 0.00 0.00 0.00 92 1009.5
20260506141725 56 172 2.6 8.7 0.00 0.00 0.00 91 1009.5
20260506141621 56 150 1.7 8.7 0.00 0.00 0.00 91 1009.5
20260506141513 56 150 3.5 8.7 0.00 0.00 0.00 91 1009.5
20260506141445 56 142 4.3 10.4 0.00 0.00 0.00 91 1009.5
20260506141317 56 142 4.3 9.6 0.00 0.00 0.00 91 1009.5
20260506141229 56 159 3.5 15.6 0.00 0.00 0.00 91 1009.5
20260506141145 56 167 3.5 15.6 0.00 0.00 0.00 91 1009.5
20260506141018 56 170 2.6 15.6 0.00 0.00 0.00 91 1009.5
20260506140929 56 135 1.7 15.6 0.00 0.00 0.00 90 1009.4
20260506140822 56 149 3.5 15.6 0.00 0.00 0.00 90 1009.4
20260506140714 56 127 3.5 15.6 0.00 0.00 0.00 90 1009.5
20260506140646 57 124 5.2 15.6 0.00 0.00 0.00 90 1009.5
20260506140521 57 127 7.0 15.6 0.00 0.00 0.00 90 1009.5
20260506140414 57 144 8.7 15.6 0.00 0.00 0.00 90 1009.6
20260506140347 57 174 7.8 15.6 0.00 0.00 0.00 90 1009.6
20260506140218 57 159 7.0 13.0 0.00 0.00 0.00 90 1009.5
20260506140131 57 124 7.0 13.0 0.00 0.00 0.00 90 1009.4
20260506140029 57 173 6.1 14.8 0.00 0.00 0.00 90 1009.6
20260506135941 57 169 6.1 14.8 0.00 0.00 0.00 90 1009.6
20260506135812 57 130 7.0 14.8 0.00 0.00 0.00 90 1009.5
20260506135724 57 161 7.8 14.8 0.00 0.00 0.00 90 1009.5
20260506135615 57 171 7.8 14.8 0.00 0.00 0.00 90 1009.5
20260506135532 57 169 7.0 14.8 0.00 0.00 0.00 90 1009.5
20260506135444 57 126 6.1 14.8 0.00 0.00 0.00 90 1009.5
20260506135315 57 239 7.0 14.8 0.00 0.00 0.00 90 1009.5
20260506135248 57 172 7.0 14.8 0.00 0.00 0.00 90 1009.5
20260506135121 57 119 8.7 14.8 0.00 0.00 0.00 90 1009.5
20260506135012 57 153 8.7 14.8 0.00 0.00 0.00 90 1009.6
20260506134929 57 133 8.7 14.8 0.00 0.00 0.00 90 1009.6
20260506134822 57 180 9.6 13.9 0.00 0.00 0.00 90 1009.7
20260506134714 57 236 7.0 13.0 0.00 0.00 0.00 90 1009.5
20260506134646 56 169 7.0 13.0 0.00 0.00 0.00 89 1009.5
20260506134537 56 144 8.7 13.0 0.00 0.00 0.00 89 1009.6
20260506134412 56 136 7.0 13.0 0.00 0.00 0.00 89 1009.5
20260506134324 56 158 6.1 13.0 0.00 0.00 0.00 88 1009.5
20260506134215 56 166 7.0 13.0 0.00 0.00 0.00 88 1009.6
20260506134123 57 172 7.0 13.0 0.00 0.00 0.00 88 1009.6
20260506134015 57 152 7.0 13.0 0.00 0.00 0.00 88 1009.7
20260506133927 57 128 8.7 13.0 0.00 0.00 0.00 88 1009.7
20260506133823 57 181 10.4 13.9 0.00 0.00 0.00 88 1009.6
20260506133715 57 164 7.8 14.8 0.00 0.00 0.00 88 1009.5
20260506133624 57 165 7.0 11.3 0.00 0.00 0.00 87 1009.5
20260506133518 57 148 7.0 11.3 0.00 0.00 0.00 87 1009.5
20260506133429 57 162 7.8 11.3 0.00 0.00 0.00 87 1009.4
20260506133342 57 154 5.2 12.2 0.00 0.00 0.00 87 1009.5
20260506133233 57 170 4.3 18.2 0.00 0.00 0.00 87 1009.4
20260506133125 57 157 5.2 18.2 0.00 0.00 0.00 87 1009.4
20260506133016 57 127 6.1 23.5 0.00 0.00 0.00 86 1009.6
20260506132929 57 158 7.0 23.5 0.00 0.00 0.00 86 1009.6
20260506132820 57 172 7.0 23.5 0.00 0.00 0.00 86 1009.5
20260506132752 57 124 5.2 23.5 0.00 0.00 0.00 86 1009.5
20260506132628 57 157 3.5 23.5 0.00 0.00 0.00 86 1009.7
20260506132520 57 73 4.3 23.5 0.00 0.00 0.00 85 1009.5
20260506132413 57 146 7.8 23.5 0.00 0.00 0.00 85 1009.5
20260506132325 57 165 8.7 23.5 0.00 0.00 0.00 85 1009.5
20260506132218 57 208 10.4 23.5 0.00 0.00 0.00 85 1009.5
20260506132114 57 124 9.6 23.5 0.00 0.00 0.00 85 1009.7
20260506132027 57 286 10.4 23.5 0.00 0.00 0.00 86 1009.7
20260506131938 57 153 7.8 13.9 0.00 0.00 0.00 87 1009.5
20260506131828 58 170 6.1 13.9 0.00 0.00 0.00 89 1009.5
20260506131720 58 173 4.3 13.9 0.00 0.00 0.00 89 1009.6
20260506131613 58 147 4.3 13.9 0.00 0.00 0.00 89 1009.6
20260506131530 58 155 6.1 13.9 0.00 0.00 0.00 89 1009.6
20260506131441 58 84 6.1 13.9 0.00 0.00 0.00 89 1009.5
20260506131313 58 193 7.0 14.8 0.00 0.00 0.00 90 1009.7
20260506131225 58 186 7.8 14.8 0.00 0.00 0.00 89 1009.7
20260506131118 58 168 9.6 14.8 0.00 0.00 0.00 89 1009.6
20260506131012 58 132 7.0 13.0 0.00 0.00 0.00 89 1009.7
20260506130925 58 138 5.2 13.0 0.00 0.00 0.00 89 1009.7
20260506130818 58 157 4.3 13.0 0.00 0.00 0.00 89 1009.7
20260506130729 58 142 6.1 13.0 0.00 0.00 0.00 89 1009.7
20260506130620 58 172 6.1 13.0 0.00 0.00 0.00 89 1009.9
20260506130515 58 182 5.2 13.0 0.00 0.00 0.00 90 1009.9
20260506130426 58 173 6.1 14.8 0.00 0.00 0.00 90 1009.9
20260506130359 58 220 7.0 14.8 0.00 0.00 0.00 90 1009.9
20260506130310 58 191 7.0 24.3 0.00 0.00 0.00 90 1009.8
20260506130238 58 186 5.2 24.3 0.00 0.00 0.00 90 1009.8
20260506130033 58 132 5.2 24.3 0.00 0.00 0.00 90 1009.8
20260506125828 58 167 6.1 24.3 0.00 0.00 0.00 90 1009.7
20260506125721 58 159 7.8 24.3 0.00 0.00 0.00 90 1009.6
20260506125617 58 167 9.6 24.3 0.00 0.00 0.00 90 1009.6
20260506125530 58 143 12.2 24.3 0.00 0.00 0.00 90 1009.6
20260506125440 59 187 12.2 24.3 0.00 0.00 0.00 90 1009.6
20260506125331 59 179 12.2 24.3 0.00 0.00 0.00 90 1009.6
20260506125223 59 171 14.8 24.3 0.00 0.00 0.00 89 1009.6
20260506125115 59 196 12.2 24.3 0.00 0.00 0.00 89 1009.5
20260506125012 59 223 8.7 23.5 0.00 0.00 0.00 90 1009.6
20260506124924 59 165 8.7 23.5 0.00 0.00 0.00 90 1009.6
20260506124836 59 189 12.2 23.5 0.00 0.00 0.00 90 1009.7
20260506124651 59 186 11.3 23.5 0.00 0.00 0.00 90 1009.4
20260506124523 59 171 9.6 23.5 0.00 0.00 0.00 90 1009.6
20260506124440 59 159 9.6 23.5 0.00 0.00 0.00 90 1009.4
20260506124330 59 223 9.6 23.5 0.00 0.00 0.00 89 1009.5
20260506124223 59 232 13.0 26.9 0.00 0.00 0.00 89 1009.4
20260506124135 59 193 11.3 26.9 0.00 0.00 0.00 89 1009.5
20260506124026 59 226 10.4 31.3 0.00 0.00 0.00 89 1009.5
20260506123939 59 151 9.6 31.3 0.00 0.00 0.00 89 1009.4
20260506123815 59 163 12.2 31.3 0.00 0.00 0.00 89 1009.5
20260506123726 59 174 11.3 31.3 0.00 0.00 0.00 89 1009.5
20260506123618 59 177 11.3 31.3 0.00 0.00 0.00 89 1009.4
20260506123530 59 176 12.2 31.3 0.00 0.00 0.00 89 1009.4
20260506123423 59 183 16.5 31.3 0.00 0.00 0.00 88 1009.5
20260506123315 59 212 16.5 31.3 0.00 0.00 0.00 88 1009.5
20260506123212 59 192 18.2 31.3 0.00 0.00 0.00 87 1009.6
20260506123125 59 225 19.1 31.3 0.00 0.00 0.00 86 1009.6
20260506123017 60 185 20.0 30.4 0.00 0.00 0.00 86 1009.5
20260506122929 60 185 17.4 26.1 0.00 0.00 0.00 86 1009.5
20260506122821 60 200 17.4 26.1 0.00 0.00 0.00 86 1009.4
20260506122737 60 232 16.5 26.1 0.00 0.00 0.00 86 1009.4
20260506122628 60 182 15.6 26.1 0.00 0.00 0.00 85 1009.4
20260506122541 60 187 16.5 26.1 0.00 0.00 0.00 85 1009.4
20260506122413 60 178 16.5 27.8 0.00 0.00 0.00 85 1009.2
20260506122325 60 202 15.6 27.8 0.00 0.00 0.00 85 1009.2
20260506122218 60 209 17.4 27.8 0.00 0.00 0.00 85 1009.2
20260506122134 60 213 17.4 27.8 0.00 0.00 0.00 85 1009.2
20260506122025 60 204 16.5 27.8 0.00 0.00 0.00 85 1009.2
20260506121917 60 180 16.5 27.8 0.00 0.00 0.00 84 1009.2
20260506121829 60 203 16.5 27.8 0.00 0.00 0.00 85 1009.2
20260506121722 60 183 16.5 27.8 0.00 0.00 0.00 85 1009.2
20260506121618 60 240 16.5 27.8 0.00 0.00 0.00 85 1009.2
20260506121530 60 186 15.6 27.8 0.00 0.00 0.00 85 1009.2
20260506121422 60 202 15.6 25.2 0.00 0.00 0.00 86 1009.3
20260506121314 60 213 14.8 25.2 0.00 0.00 0.00 86 1009.3
20260506121226 60 205 13.9 24.3 0.00 0.00 0.00 87 1009.3
20260506121137 60 180 15.6 26.9 0.00 0.00 0.00 86 1009.2
20260506121053 60 221 15.6 26.9 0.00 0.00 0.00 86 1009.2
20260506120924 60 213 16.5 26.9 0.00 0.00 0.00 86 1009.2
20260506120816 60 198 16.5 26.9 0.00 0.00 0.00 86 1009.3
20260506120729 60 182 17.4 26.9 0.00 0.00 0.00 87 1009.3
20260506120641 60 211 17.4 26.9 0.00 0.00 0.00 87 1009.2
20260506120533 60 184 16.5 26.9 0.00 0.00 0.00 87 1009.2
20260506120443 60 198 15.6 26.9 0.00 0.00 0.00 87 1009.2
20260506120317 60 228 16.5 26.9 0.00 0.00 0.00 87 1009.3
20260506120228 60 219 16.5 26.9 0.00 0.00 0.00 87 1009.2
20260506120119 60 199 15.6 24.3 0.00 0.00 0.00 87 1009.4
20260506120030 60 187 15.6 20.9 0.00 0.00 0.00 87 1009.3
20260506115921 60 183 14.8 20.9 0.00 0.00 0.00 88 1009.3
20260506115831 60 173 13.0 23.5 0.00 0.00 0.00 88 1009.3
20260506115725 60 185 12.2 23.5 0.00 0.00 0.00 88 1009.4
20260506115616 60 190 13.0 23.5 0.00 0.00 0.00 88 1009.3
20260506115529 60 207 13.0 23.5 0.00 0.00 0.00 88 1009.3
20260506115421 60 202 12.2 23.5 0.00 0.00 0.00 88 1009.3
20260506115313 60 217 12.2 23.5 0.00 0.00 0.00 88 1009.2
20260506115228 60 200 12.2 23.5 0.00 0.00 0.00 88 1009.2
20260506115120 60 242 10.4 23.5 0.00 0.00 0.00 89 1009.2
20260506115031 60 184 11.3 23.5 0.00 0.00 0.00 89 1009.4
20260506114923 59 232 11.3 23.5 0.00 0.00 0.00 89 1009.3
20260506114815 59 213 12.2 22.6 0.00 0.00 0.00 89 1009.4
20260506114730 59 217 12.2 22.6 0.00 0.00 0.00 88 1009.4
20260506114624 59 206 13.9 24.3 0.00 0.00 0.00 89 1009.4
20260506114535 59 232 13.9 24.3 0.00 0.00 0.00 88 1009.3
20260506114425 59 187 13.9 24.3 0.00 0.00 0.00 88 1009.3
20260506114317 59 181 16.5 24.3 0.00 0.00 0.00 88 1009.3
20260506114227 59 220 16.5 24.3 0.00 0.00 0.00 88 1009.3
20260506114122 59 188 14.8 24.3 0.00 0.00 0.00 88 1009.3
20260506114032 59 188 13.9 24.3 0.00 0.00 0.00 88 1009.3
20260506113922 59 189 13.0 24.3 0.00 0.00 0.00 88 1009.4
20260506113833 59 211 14.8 24.3 0.00 0.00 0.00 88 1009.4
20260506113744 59 204 15.6 24.3 0.00 0.00 0.00 88 1009.4
20260506113613 59 169 15.6 24.3 0.00 0.00 0.00 89 1009.4
20260506113524 59 201 14.8 24.3 0.00 0.00 0.00 89 1009.4
20260506113418 59 180 13.0 21.7 0.00 0.00 0.00 89 1009.5
20260506113328 59 209 13.0 21.7 0.00 0.00 0.00 89 1009.5
20260506113240 59 187 12.2 21.7 0.00 0.00 0.00 89 1009.4
20260506113131 59 232 13.0 21.7 0.00 0.00 0.00 89 1009.4
20260506113024 59 200 13.9 21.7 0.00 0.00 0.00 89 1009.4
20260506112915 59 216 14.8 21.7 0.00 0.00 0.00 89 1009.4
20260506112830 59 175 15.6 26.1 0.00 0.00 0.00 90 1009.4
20260506112741 59 229 16.5 26.1 0.00 0.00 0.00 90 1009.4
20260506112631 59 225 14.8 26.1 0.00 0.00 0.00 90 1009.5
20260506112524 59 213 13.0 26.1 0.00 0.00 0.00 90 1009.4
20260506112434 59 190 12.2 26.1 0.00 0.00 0.00 90 1009.5
20260506112323 59 239 11.3 26.1 0.00 0.00 0.00 90 1009.5
20260506112220 59 265 12.2 26.1 0.00 0.00 0.00 90 1009.5
20260506112152 59 217 13.0 26.1 0.00 0.00 0.00 90 1009.4
20260506112021 59 213 15.6 26.1 0.00 0.00 0.00 90 1009.5
20260506111913 59 208 14.8 26.1 0.00 0.00 0.00 90 1009.4
20260506111825 58 207 11.3 19.1 0.00 0.00 0.00 91 1009.4
20260506111721 58 210 10.4 19.1 0.00 0.00 0.00 91 1009.4
20260506111612 58 211 11.3 19.1 0.00 0.00 0.00 91 1009.4
20260506111525 58 177 12.2 19.1 0.00 0.00 0.00 91 1009.4
20260506111437 58 166 11.3 19.1 0.00 0.00 0.00 91 1009.4
20260506111327 58 198 11.3 19.1 0.00 0.00 0.00 91 1009.4
20260506111223 58 199 12.2 19.1 0.00 0.00 0.00 91 1009.4
20260506111115 58 178 11.3 19.1 0.00 0.00 0.00 91 1009.4
20260506111048 58 202 10.4 19.1 0.00 0.00 0.00 91 1009.4
20260506110917 58 140 11.3 21.7 0.00 0.00 0.00 91 1009.4
20260506110828 58 188 11.3 21.7 0.00 0.00 0.00 91 1009.4
20260506110739 58 142 13.0 21.7 0.00 0.00 0.00 91 1009.3
20260506110614 58 174 12.2 21.7 0.00 0.00 0.00 91 1009.3
20260506110526 58 159 10.4 21.7 0.00 0.00 0.00 91 1009.3
20260506110418 58 211 10.4 21.7 0.00 0.00 0.00 91 1009.4
20260506110328 58 179 9.6 21.7 0.00 0.00 0.00 91 1009.4
20260506110220 58 186 9.6 21.7 0.00 0.00 0.00 91 1009.4
20260506110116 58 194 10.4 21.7 0.00 0.00 0.00 90 1009.4
20260506110027 58 166 9.6 21.7 0.00 0.00 0.00 90 1009.4
20260506105918 58 188 10.4 20.9 0.00 0.28 0.00 90 1009.4
20260506105829 58 186 13.0 22.6 0.00 0.28 0.00 90 1009.4
20260506105722 58 184 13.9 22.6 0.00 0.28 0.00 90 1009.5
20260506105615 58 179 13.0 22.6 0.00 0.28 0.00 90 1009.5
20260506105531 58 218 12.2 22.6 0.00 0.28 0.00 90 1009.5
20260506105420 58 184 10.4 22.6 0.00 0.28 0.00 90 1009.6
20260506105348 58 196 12.2 22.6 0.00 0.28 0.00 90 1009.6
20260506105218 58 198 10.4 22.6 0.00 0.28 0.00 90 1009.6
20260506105130 58 184 11.3 22.6 0.00 0.28 0.00 91 1009.6
20260506105022 58 217 11.3 22.6 0.00 0.28 0.00 90 1009.7
20260506104918 58 187 12.2 22.6 0.00 0.28 0.00 90 1009.7
20260506104828 58 183 12.2 21.7 0.00 0.28 0.00 91 1009.6
20260506104739 58 225 11.3 20.0 0.00 0.28 0.00 90 1009.6
20260506104629 58 171 10.4 20.0 0.00 0.28 0.00 91 1009.6
20260506104523 58 242 12.2 20.0 0.00 0.28 0.00 90 1009.6
20260506104416 58 196 12.2 20.0 0.00 0.28 0.00 90 1009.6
20260506104327 58 167 12.2 19.1 0.00 0.28 0.00 91 1009.6
20260506104239 58 183 12.2 19.1 0.00 0.28 0.00 90 1009.7
20260506104130 58 182 13.0 19.1 0.00 0.28 0.00 90 1009.7
20260506104022 58 229 13.0 19.1 0.00 0.28 0.00 91 1009.6
20260506103934 58 196 13.0 19.1 0.00 0.28 0.00 91 1009.7
20260506103849 58 216 13.0 19.1 0.00 0.28 0.00 91 1009.7
20260506103740 58 200 13.9 19.1 0.00 0.28 0.00 91 1009.7
20260506103631 58 180 12.2 19.1 0.00 0.28 0.00 91 1009.8
20260506103523 58 178 11.3 20.9 0.00 0.28 0.00 91 1009.8
20260506103413 58 227 11.3 24.3 0.00 0.28 0.00 91 1009.8
20260506103324 58 178 10.4 24.3 0.00 0.28 0.00 92 1009.8
20260506103220 58 185 10.4 24.3 0.00 0.28 0.00 92 1009.8
20260506103112 58 168 10.4 24.3 0.00 0.28 0.00 92 1009.9
20260506103023 58 179 12.2 23.5 0.00 0.28 0.00 92 1009.9
20260506102935 58 211 13.0 23.5 0.00 0.28 0.00 92 1009.9
20260506102826 58 175 13.0 23.5 0.00 0.28 0.00 92 1009.9
20260506102723 57 200 13.9 23.5 0.00 0.28 0.00 92 1009.8
20260506102613 57 182 13.9 23.5 0.00 0.28 0.00 92 1009.8
20260506102523 57 186 13.9 23.5 0.00 0.28 0.00 92 1009.8
20260506102415 57 184 13.0 23.5 0.00 0.28 0.00 93 1009.8
20260506102326 57 177 12.2 23.5 0.00 0.28 0.00 93 1009.8
20260506102218 57 209 12.2 23.5 0.00 0.28 0.00 93 1009.8
20260506102135 57 171 11.3 23.5 0.00 0.28 0.00 93 1009.8
20260506102025 57 186 11.3 21.7 0.00 0.28 0.00 93 1009.8
20260506101915 57 177 12.2 21.7 0.00 0.28 0.00 93 1009.9
20260506101827 57 178 12.2 21.7 0.00 0.28 0.00 93 1009.9
20260506101718 57 213 11.3 21.7 0.00 0.28 0.00 93 1009.8
20260506101649 57 232 11.3 21.7 0.00 0.28 0.00 93 1009.9
20260506101523 57 122 13.0 22.6 0.00 0.28 0.00 93 1009.8
20260506101414 57 178 13.0 22.6 0.00 0.28 0.00 93 1009.7
20260506101325 57 205 12.2 22.6 0.00 0.28 0.00 93 1009.7
20260506101216 57 205 12.2 22.6 0.00 0.28 0.00 93 1009.7
20260506101128 57 242 11.3 22.6 0.00 0.28 0.00 93 1009.7
20260506101041 57 193 11.3 22.6 0.00 0.28 0.00 93 1009.8
20260506100915 57 177 12.2 22.6 0.00 0.28 0.00 94 1009.9
20260506100826 57 210 11.3 22.6 0.00 0.28 0.00 93 1009.9
20260506100718 57 183 13.0 22.6 0.00 0.28 0.00 93 1009.8
20260506100629 57 208 13.9 22.6 0.00 0.28 0.00 93 1009.7
20260506100522 57 150 15.6 25.2 0.00 0.28 0.00 93 1009.7
20260506100416 57 194 13.9 22.6 0.00 0.28 0.00 94 1009.7
20260506100325 57 198 13.0 22.6 0.00 0.28 0.00 93 1009.7
20260506100214 57 186 12.2 22.6 0.00 0.28 0.00 93 1009.7
20260506100125 56 190 12.2 22.6 0.00 0.28 0.00 93 1009.7
20260506100018 56 221 11.3 22.6 0.00 0.28 0.00 93 1009.8
20260506095929 56 188 11.3 22.6 0.00 1.06 0.00 93 1009.7
20260506095825 56 235 13.0 22.6 0.00 1.06 0.00 93 1009.7
20260506095737 56 209 13.9 22.6 0.00 1.06 0.00 93 1009.7
20260506095627 56 210 13.0 22.6 0.00 1.06 0.00 93 1009.7
20260506095519 56 197 13.0 22.6 0.00 1.06 0.00 93 1009.7
20260506095450 56 172 12.2 22.6 0.00 1.06 0.00 93 1009.7
20260506095339 56 222 13.9 22.6 0.00 1.06 0.00 93 1009.8
20260506095227 56 182 13.9 22.6 0.00 1.06 0.00 93 1009.7
20260506095122 56 201 14.8 22.6 0.00 1.06 0.00 93 1009.9
20260506095013 56 213 12.2 24.3 0.00 1.06 0.00 93 1009.8
20260506094925 56 205 13.0 24.3 0.00 1.06 0.00 93 1009.8
20260506094817 56 200 13.0 24.3 0.00 1.06 0.00 93 1009.7
20260506094728 55 178 12.2 24.3 0.00 1.06 0.00 93 1009.8
20260506094620 55 223 9.6 24.3 0.00 1.06 0.00 93 1009.8
20260506094516 55 213 9.6 24.3 0.00 1.06 0.00 93 1009.8
20260506094427 55 186 11.3 24.3 0.00 1.06 0.00 93 1009.8
20260506094316 55 198 11.3 24.3 0.00 1.06 0.00 93 1009.7
20260506094226 55 144 11.3 24.3 0.00 1.06 0.00 93 1009.7
20260506094117 55 180 13.0 24.3 0.00 1.06 0.00 93 1009.8
20260506094027 55 169 10.4 23.5 0.00 1.06 0.00 93 1009.8
20260506093941 55 173 9.6 19.1 0.00 1.06 0.00 93 1009.8
20260506093831 55 190 8.7 19.1 0.00 1.06 0.00 93 1009.7
20260506093721 55 175 8.7 21.7 0.00 1.06 0.00 93 1009.8
20260506093612 55 186 7.8 21.7 0.00 1.06 0.00 93 1009.7
20260506093526 55 188 8.7 21.7 0.00 1.06 0.00 93 1009.7
20260506093420 55 161 10.4 21.7 0.00 1.06 0.00 93 1009.7
20260506093330 55 184 12.2 21.7 0.00 1.06 0.00 93 1009.8
20260506093222 55 175 12.2 21.7 0.00 1.06 0.00 93 1009.8
20260506093114 56 184 11.3 21.7 0.00 1.06 0.00 93 1009.8
20260506093026 55 174 12.2 21.7 0.00 1.06 0.00 93 1009.8
20260506092937 55 211 13.9 21.7 0.00 1.06 0.00 93 1009.8
20260506092830 55 219 13.9 21.7 0.00 1.06 0.00 93 1009.8
20260506092722 56 200 13.0 20.9 0.00 1.06 0.00 93 1009.7
20260506092612 56 189 10.4 24.3 0.00 1.06 0.00 93 1009.8
20260506092525 56 200 10.4 24.3 0.00 1.06 0.00 93 1009.8
20260506092413 56 194 13.0 24.3 0.00 1.06 0.00 93 1009.8
20260506092323 56 186 13.0 24.3 0.00 1.06 0.00 93 1009.8
20260506092218 56 174 11.3 24.3 0.00 1.06 0.00 93 1009.7
20260506092131 55 211 13.0 24.3 0.00 1.06 0.00 93 1009.7
20260506092045 55 211 15.6 24.3 0.00 1.06 0.00 93 1009.7
20260506091914 55 229 15.6 24.3 0.00 1.06 0.00 93 1009.7
20260506091825 56 205 14.8 24.3 0.00 1.06 0.00 93 1009.7
20260506091741 56 194 14.8 24.3 0.00 1.06 0.00 93 1009.7
20260506091631 55 185 13.0 20.9 0.00 1.06 0.00 93 1009.7
20260506091522 56 200 13.9 21.7 0.00 1.06 0.00 93 1009.7
20260506091433 56 215 12.2 20.9 0.00 1.06 0.00 93 1009.7
20260506091321 56 148 10.4 20.9 0.00 1.06 0.00 93 1009.7
20260506091213 56 175 9.6 19.1 0.00 1.06 0.00 93 1009.6
20260506091129 56 188 11.3 19.1 0.00 1.06 0.00 93 1009.6
20260506091020 56 171 10.4 19.1 0.00 1.06 0.00 93 1009.7
20260506090952 56 175 9.6 19.1 0.00 1.06 0.00 93 1009.7
20260506090822 56 215 9.6 19.1 0.00 1.06 0.00 93 1009.7
20260506090712 56 193 10.4 19.1 0.00 1.06 0.00 93 1009.7
20260506090623 56 209 10.4 19.1 0.00 1.06 0.00 93 1009.7
20260506090519 56 161 10.4 19.1 0.00 1.06 0.00 93 1009.7
20260506090430 56 185 10.4 19.1 0.00 1.06 0.00 93 1009.7
20260506090321 56 213 9.6 19.1 0.00 1.06 0.00 93 1009.7
20260506090231 56 185 9.6 19.1 0.00 1.06 0.00 93 1009.7
20260506090124 56 196 12.2 19.1 0.00 1.06 0.00 93 1009.7
20260506090012 56 150 13.9 19.1 0.00 1.77 0.00 93 1009.7
20260506085927 56 208 13.0 21.7 0.00 1.77 0.00 94 1009.7
20260506085819 56 175 11.3 20.0 0.00 1.77 0.00 93 1009.7
20260506085712 56 231 9.6 20.0 0.00 1.77 0.00 93 1009.6
20260506085623 56 211 9.6 20.0 0.00 1.77 0.00 93 1009.6
20260506085514 55 183 10.4 20.0 0.00 1.77 0.00 93 1009.6
20260506085425 55 227 9.6 20.0 0.00 1.77 0.00 94 1009.6
20260506085339 55 180 8.7 20.0 0.00 1.77 0.00 93 1009.5
20260506085229 56 226 10.4 20.0 0.00 1.77 0.00 93 1009.6
20260506085121 55 205 13.0 20.0 0.00 1.77 0.00 93 1009.6
20260506085031 55 219 14.8 20.0 0.00 1.77 0.00 94 1009.6
20260506084921 55 219 14.8 20.9 0.00 1.77 0.00 94 1009.6
20260506084837 55 207 13.9 19.1 0.00 1.77 0.00 94 1009.6
20260506084727 55 221 13.0 19.1 0.00 1.77 0.00 93 1009.6
20260506084618 55 246 11.3 21.7 0.00 1.77 0.00 93 1009.5
20260506084531 55 236 9.6 22.6 0.00 1.77 0.00 93 1009.6
20260506084422 55 236 10.4 22.6 0.00 1.77 0.00 93 1009.6
20260506084331 55 202 12.2 22.6 0.00 1.77 0.00 93 1009.7
20260506084226 55 224 13.9 26.1 0.00 1.77 0.00 93 1009.7
20260506084117 55 188 13.9 26.1 0.00 1.77 0.00 93 1009.7
20260506084030 55 186 13.0 26.1 0.00 1.77 0.00 93 1009.7
20260506083921 55 207 13.9 26.1 0.00 1.77 0.00 93 1009.7
20260506083833 55 184 13.9 26.1 0.00 1.77 0.00 93 1009.8
20260506083723 55 188 15.6 26.1 0.00 1.77 0.00 93 1009.8
20260506083619 55 215 15.6 26.1 0.00 1.77 0.00 93 1009.8
20260506083531 55 228 15.6 26.1 0.00 1.77 0.00 93 1009.7
20260506083421 55 209 16.5 26.1 0.00 1.77 0.00 93 1009.8
20260506083313 55 226 15.6 26.1 0.00 1.77 0.00 93 1009.7
20260506083224 55 219 15.6 27.8 0.00 1.77 0.00 93 1009.7
20260506083118 55 208 14.8 23.5 0.00 1.77 0.00 93 1009.8
20260506083025 55 207 15.6 23.5 0.00 1.77 0.00 93 1009.7
20260506082917 55 205 14.8 23.5 0.00 1.77 0.00 93 1009.8
20260506082828 55 215 13.9 24.3 0.00 1.77 0.00 93 1009.6
20260506082718 55 236 11.3 20.0 0.00 1.77 0.00 93 1009.6
20260506082614 55 259 11.3 22.6 0.00 1.77 0.00 93 1009.7
20260506082527 55 190 12.2 22.6 0.00 1.77 0.00 93 1009.7
20260506082419 55 240 12.2 22.6 0.00 1.77 0.00 93 1009.5
20260506082330 55 200 10.4 22.6 0.00 1.77 0.00 93 1009.6
20260506082221 55 215 10.4 22.6 0.00 1.77 0.00 93 1009.6
20260506082117 55 173 11.3 22.6 0.00 1.77 0.00 93 1009.6
20260506082027 55 200 11.3 22.6 0.00 1.77 0.00 93 1009.5
20260506081918 55 182 12.2 22.6 0.00 1.77 0.00 93 1009.6
20260506081829 55 204 12.2 22.6 0.00 1.77 0.00 93 1009.7
20260506081720 55 221 14.8 22.6 0.00 1.77 0.00 93 1009.5
20260506081614 55 242 11.3 21.7 0.00 1.77 0.00 93 1009.5
20260506081527 55 209 10.4 20.0 0.00 1.77 0.00 93 1009.5
20260506081419 55 223 8.7 20.0 0.00 1.77 0.00 93 1009.6
20260506081329 55 264 8.7 20.0 0.00 1.77 0.00 94 1009.5
20260506081240 55 176 9.6 18.2 0.00 1.77 0.00 93 1009.6
20260506081130 55 241 10.4 18.2 0.00 1.77 0.00 94 1009.5
20260506081024 55 211 9.6 18.2 0.00 1.77 0.00 94 1009.5
20260506080916 55 187 8.7 18.2 0.00 1.77 0.00 94 1009.5
20260506080827 55 191 9.6 18.2 0.00 1.77 0.00 94 1009.5
20260506080719 55 221 8.7 18.2 0.00 1.77 0.00 94 1009.5
20260506080631 55 234 8.7 16.5 0.00 1.77 0.00 94 1009.5
20260506080527 55 217 7.8 16.5 0.00 1.77 0.00 94 1009.5
20260506080416 55 198 10.4 16.5 0.00 1.77 0.00 94 1009.5
20260506080231 55 162 10.4 19.1 0.00 1.77 0.00 94 1009.4
20260506080144 55 167 8.7 16.5 0.00 1.77 0.00 94 1009.5
20260506073515 54 211 8.7 16.5 0.00 1.77 0.00 94 1009.5
20260506073427 54 203 7.8 16.5 0.00 1.77 0.00 94 1009.5
20260506073318 54 194 7.8 16.5 0.00 1.77 0.00 94 1009.4
20260506073213 54 183 8.7 16.5 0.00 1.77 0.00 94 1009.4
20260506073124 54 248 9.6 16.5 0.00 1.77 0.00 94 1009.4
20260506073015 54 179 9.6 16.5 0.00 1.77 0.00 93 1009.4
20260506072947 54 187 8.7 16.5 0.00 1.77 0.00 94 1009.4
20260506072818 54 215 9.6 16.5 0.00 1.77 0.00 94 1009.4
20260506072714 54 177 10.4 16.5 0.00 1.77 0.00 93 1009.4
20260506072627 54 215 10.4 17.4 0.00 1.77 0.00 93 1009.4
20260506072520 54 216 10.4 17.4 0.00 1.77 0.00 93 1009.4
20260506072431 54 190 10.4 17.4 0.00 1.77 0.00 93 1009.5
20260506072321 54 171 11.3 19.1 0.00 1.77 0.00 94 1009.4
20260506072218 54 173 11.3 19.1 0.00 1.77 0.00 93 1009.4
20260506072131 54 213 10.4 19.1 0.00 1.77 0.00 93 1009.4
20260506072024 54 188 8.7 19.1 0.00 1.77 0.00 93 1009.4
20260506071936 54 234 8.7 19.1 0.00 1.77 0.00 93 1009.5
20260506071826 54 182 7.8 19.1 0.00 1.77 0.00 93 1009.5
20260506071718 54 169 9.6 19.1 0.00 1.77 0.00 93 1009.5
20260506071613 54 186 10.4 19.1 0.00 1.77 0.00 93 1009.4
20260506071526 54 205 11.3 19.1 0.00 1.77 0.00 93 1009.4
20260506071417 54 179 11.3 19.1 0.00 1.77 0.00 93 1009.4
20260506071330 54 190 9.6 18.2 0.00 1.77 0.00 93 1009.4
20260506071223 54 214 9.6 15.6 0.00 1.77 0.00 93 1009.4
20260506071120 54 150 11.3 18.2 0.00 1.77 0.00 93 1009.4
20260506071012 54 217 10.4 18.2 0.00 1.77 0.00 94 1009.4
20260506070925 54 198 9.6 18.2 0.00 1.77 0.00 94 1009.4
20260506070815 54 139 10.4 18.2 0.00 1.77 0.00 93 1009.3
20260506070748 54 185 11.3 18.2 0.00 1.77 0.00 94 1009.3
20260506070623 54 212 10.4 18.2 0.00 1.77 0.00 94 1009.4
20260506070518 54 201 10.4 18.2 0.00 1.77 0.00 94 1009.4
20260506070426 54 198 11.3 18.2 0.00 1.77 0.00 93 1009.3
20260506070318 54 212 10.4 18.2 0.00 1.77 0.00 93 1009.4
20260506070229 54 186 10.4 18.2 0.00 1.77 0.00 93 1009.4
20260506070121 54 169 9.6 17.4 0.00 1.77 0.00 93 1009.4
20260506062515 54 198 10.4 16.5 0.00 2.91 0.00 93 1009.5
20260506062428 54 199 11.3 16.5 0.00 2.91 0.00 93 1009.5
20260506062321 54 220 10.4 16.5 0.00 2.91 0.00 93 1009.4
20260506062217 54 194 8.7 17.4 0.00 2.91 0.00 94 1009.4
20260506062130 54 175 7.0 17.4 0.00 2.91 0.00 93 1009.4
20260506062023 54 221 7.8 17.4 0.00 2.91 0.00 93 1009.4
20260506061916 54 199 10.4 17.4 0.00 2.91 0.00 93 1009.3
20260506061828 54 192 10.4 17.4 0.00 2.91 0.00 93 1009.3
20260506061725 54 212 10.4 17.4 0.00 2.91 0.00 94 1009.4
20260506061617 54 211 9.6 17.4 0.00 2.91 0.00 93 1009.4
20260506061549 54 185 11.3 17.4 0.00 2.91 0.00 94 1009.4
20260506061441 54 198 11.3 17.4 0.00 2.91 0.00 93 1009.4
20260506061314 54 196 9.6 16.5 0.00 2.91 0.00 94 1009.5
20260506061224 54 165 9.6 16.5 0.00 2.91 0.00 94 1009.5
20260506061140 54 205 7.8 16.5 0.00 2.91 0.00 94 1009.4
20260506061031 54 167 8.7 16.5 0.00 2.91 0.00 94 1009.5
20260506060922 54 216 9.6 16.5 0.00 2.91 0.00 94 1009.5
20260506060834 54 204 9.6 16.5 0.00 2.91 0.00 94 1009.5
20260506060726 54 182 9.6 16.5 0.00 2.91 0.00 94 1009.5
20260506060638 54 186 8.7 16.5 0.00 2.91 0.00 94 1009.5
20260506060513 54 232 8.7 16.5 0.00 2.91 0.00 94 1009.5
20260506060426 54 184 9.6 16.5 0.00 2.91 0.00 94 1009.5
20260506060319 54 222 8.7 16.5 0.00 2.91 0.00 94 1009.5
20260506060231 54 207 7.8 19.1 0.00 2.91 0.00 93 1009.5
20260506060123 54 223 8.7 19.1 0.00 2.91 0.00 94 1009.5
20260506051313 54 213 8.7 15.6 0.00 4.37 0.00 93 1009.5
20260506051226 54 192 7.8 15.6 0.00 4.37 0.00 93 1009.5
20260506051119 54 167 8.7 15.6 0.00 4.37 0.00 93 1009.6
20260506051017 54 181 7.8 15.6 0.00 4.37 0.00 93 1009.5
20260506050929 54 193 7.8 15.6 0.00 4.37 0.00 93 1009.5
20260506050820 54 219 8.7 15.6 0.00 4.37 0.00 93 1009.5
20260506050752 54 179 8.7 15.6 0.00 4.37 0.00 93 1009.6
20260506050622 54 196 8.7 14.8 0.00 4.37 0.00 93 1009.5
20260506050535 54 194 8.7 16.5 0.00 4.37 0.00 93 1009.5
20260506050431 54 205 8.7 16.5 0.00 4.37 0.00 93 1009.5
20260506050324 54 171 7.8 16.5 0.00 4.37 0.00 93 1009.5
20260506050236 54 186 7.0 16.5 0.00 4.37 0.00 93 1009.6
20260506050147 54 188 7.8 16.5 0.00 4.37 0.00 93 1009.6
20260506045114 54 197 7.8 12.2 0.00 4.69 0.00 94 1009.6
20260506045046 54 207 7.0 10.4 0.00 4.69 0.00 94 1009.6
20260506044937 54 171 7.8 10.4 0.00 4.69 0.00 93 1009.6
20260506044848 54 202 7.8 10.4 0.00 4.69 0.00 94 1009.6
20260506044720 54 176 7.8 11.3 0.00 4.69 0.00 94 1009.7